Regional Weather Roundup
Issued by NWS Upton, NY

Current Version | Previous Version | Graphics & Text | Print | Product List | Glossary Off
Versions: 1 2 3 4 5 6 7 8 9 10 11 12 13 14 15 16 17 18 19 20 21 22 23 24 25 26 27 28 29 30 31 32 33 34 35 36 37 38 39 40 41 42 43 44 45 46 47 48 49 50

747
ASUS41 KOKX 230008
RWROKX

REGIONAL WEATHER ROUNDUP
NATIONAL WEATHER SERVICE NEW YORK NY
800 PM EDT TUE AUG 22 2017

NOTE: "FAIR" INDICATES FEW OR NO CLOUDS BELOW 12,000 FEET WITH NO
SIGNIFICANT WEATHER AND/OR OBSTRUCTIONS TO VISIBILITY.

NYZ071-072-176-178-NJZ106-104-230100-
NEW YORK CITY METRO AREA

CITY           SKY/WX    TMP DP  RH WIND       PRES   REMARKS
Central Park   CLOUDY    85  71  63 VRB3      29.81S HX  90
Bronx Bot Gard   N/A     82  72  69 SE6       29.78F
LaGuardia APRT MOCLDY    84  75  74 S14       29.78S HX  92
Kennedy INTL   MOCLDY    78  76  93 S23       29.80S
Breezy Point     N/A     75 N/A N/A S17G23      N/A
Newark/Liberty MOCLDY    86  71  60 S14G23    29.78S HX  91
Teterboro      PTCLDY    87  72  60 SW15      29.76S HX  93
$$

NYZ177-179-078>081-230100-
LONG ISLAND NEW YORK

CITY           SKY/WX    TMP DP  RH WIND       PRES   REMARKS
Jones Beach      N/A     77 N/A N/A S13G22      N/A
Matinecock PT    N/A     81 N/A N/A S8G18       N/A
Farmingdale    PTCLDY    78  73  84 SW22G31   29.82R
MacArthur/ISP  CLOUDY    78  74  87 SW17G31   29.81F
Shirley        CLEAR     78  75  90 S13G26    29.83S
Mt Sinai Harb    N/A    N/A N/A N/A S14G21      N/A
Westhampton    PTCLDY    76  72  87 SW12G25   29.85S
East Hampton   CLOUDY    73  72  94 SW14G20   29.83S
Montauk          N/A     74  73  97 S14G23    29.84F
$$

NYZ052-065-067-230100-
HUDSON VALLEY

CITY           SKY/WX    TMP DP  RH WIND       PRES   REMARKS
White Plains   CLOUDY    81  74  79 S10G16    29.79S
Larchmont Harb   N/A     79 N/A N/A S18         N/A
Croton On Huds   N/A     88 N/A N/A S9G17       N/A
Newburgh       MOCLDY    84  72  65 SW9       29.78S
Montgomery     CLOUDY    83  69  62 S8        29.75F
Poughkeepsie   CLOUDY    85  68  56 VRB5      29.73F
Albany         CLOUDY    84  67  56 S16G24    29.68S
$$

NJZ001-105-106-008-010-013-015-019>022-104-230100-
NEW JERSEY

CITY           SKY/WX    TMP DP  RH WIND       PRES   REMARKS
Newark/Liberty MOCLDY    86  71  60 S14G23    29.78S HX  91
Teterboro      PTCLDY    87  72  60 SW15      29.76S HX  93
Caldwell       CLOUDY    86  72  62 SW8       29.77F HX  92
Somerville     CLOUDY    85  71  63 S6        29.77F HX  90
Linden         NOT AVBL
Perth Amboy      N/A     84 N/A N/A S14         N/A
Sussex         PTCLDY    82  70  66 VRB3      29.77F
Andover          N/A     82  68  62 S5        29.79F
Trenton        PTCLDY    86  71  60 SW13      29.80F HX  91
Millville      CLEAR     85  73  67 VRB3      29.85S HX  91
Atlantic City  CLEAR     79  75  87 S14       29.86S
Wrightstown    CLEAR     83  71  67 SW15      29.79F
Toms River     CLEAR     80  74  81 S12       29.84S
Belmar         CLEAR     82  73  74 S13G18    29.83S
$$

PAZ047>061-062-071-230100-
EASTERN PENNSYLVANIA

CITY           SKY/WX    TMP DP  RH WIND       PRES   REMARKS
Philadelphia   CLOUDY    86  72  62 SW15      29.82F HX  92
Allentown      PTCLDY    85  72  65 S12       29.77F HX  91
Scranton       CLOUDY    74  71  91 NW13G23   29.79S THUNDER
$$

CTZ002-004>006-009-010-012-RIZ004-006-007-MAZ004-011-015-230100-
SOUTHERN NEW ENGLAND
 IN CT

CITY           SKY/WX    TMP DP  RH WIND       PRES   REMARKS
Bradley INTL   CLOUDY    81  74  79 S14G24    29.75F
Hartford       CLOUDY    81  74  79 S12       29.76S
Danbury        CLOUDY    82  74  76 S10G18    29.79F
Wtrbury/Oxford MOCLDY    78  74  87 S14       29.81F
Norwalk Harbor   N/A     79 N/A N/A S18G24      N/A
Bridgeport     PTCLDY    80  74  81 S17G25    29.78S
Meriden        PTCLDY    79  73  82 S10G22    29.78F
New Haven      CLOUDY    79  73  82 S13G22    29.79F
Chester        FAIR      77  73  88 S10G17    29.82F
Groton         CLEAR     74  71  91 SW9       29.82S
Wilimantic     CLOUDY    80  74  81 S10       29.79F

 IN RI

CITY           SKY/WX    TMP DP  RH WIND       PRES   REMARKS
Providence     CLOUDY    77  73  87 SW15G23   29.81F
Block Island   CLEAR     73  71  93 SW17G23   29.84F
Westerly       MOCLDY    75  72  90 SW14G23   29.83F
 IN MA

CITY           SKY/WX    TMP DP  RH WIND       PRES   REMARKS
Boston         CLOUDY    79  72  79 S18G24    29.75F
Worcester      PTCLDY    77  70  79 S17       29.79F
Westfield      CLOUDY    81  75  82 S14G22    29.74S
Provincetown   PTCLDY    73  71  93 SW16        N/A
Nantucket        N/A     71  71 100 S17       29.87F FOG
$$

ANZ330-335-338-340-345-350-353-355-230100-
COASTAL MARINE OBSERVATIONS


STATION/POSITION TIME  SKY/WX   TEMP    WIND        PRES    VSBY  WAVE
                                AIR SEA DIR/SP/G                  HT/PER
                 (UTC)          (F)     (DEG/KT/KT) (MB)    (MI)  (FT/S)
NY HARB ENTRANCE 2250            78 76  200/ 25/ 29 1008.4          6/ 6
GREAT SOUTH BAY  2330            78 79  220/ 21/ 27   N/A
23 SSW MONTAUK P 2250            75 73              1010.7          5/ 5
15 E BARNEGAT LI 2330               77                N/A           6/ 6
HUDSON CANYON    2250            77 76  200/ 19/ 23 1011.4          4/ 5
KINGS POINT      2336            80 78  210/ 15/ 18 1008.7
EXECUTION ROCKS  NOT AVBL
WESTERN LI SOUND NOT AVBL
CENTRAL LI SOUND NOT AVBL
EASTERN LI SOUND NOT AVBL
ROBBINS REEF     2324                   200/ 15/ 18 1009.3
$$


>>>>>>>>>>>>>>>>>>>>>>>>>>>> KEY <<<<<<<<<<<<<<<<<<<<<<<<<<<
>                                                          <
>     SKY/WX - Sky Condition/Present Weather               <
>     TMP    - Temperature in Fahrenheit                   <
>     DP     - Dew Point in Fahrenheit                     <
>     RH     - Relative Humidity in Percent                <
>     WIND   - Direction (from) and Speed in MPH           <
>     PRES   - Mean Sea Level Pressure (inches of Hg)      <
>     WCI    - Wind Chill Index                            <
>     VSB    - VISIBILITY IN MILES                         <
>     HX     - HEAT INDEX                                  <
>     TC     - TEMPERATURE IN CELSIUS                      <
>     VRB    - VARIABLE WIND DIRECTION                     <
>                                                          <
>>>>>>>>>>>>>>>>>>>>>>>>>>>> KEY <<<<<<<<<<<<<<<<<<<<<<<<<<<




USA.gov is the U.S. government's official web portal to all federal, state and local government web resources and services.